星链-31620 (STARLINK-31620 )

导读

STARLINK-31620是美国SpaceX公司星链星座的一颗卫星,于北京时间2024年4月10日发射,属于二代星链V2.0 Mini卫星,单星发射质量约790千克,通信容量可达165Gb/s,设计寿命超5年。它被送入近地轨道后,将通过电推变轨至工作轨道,助力星链为全球提供高速低延迟卫星互联网服务,尤其覆盖偏远地区。

Basic Information
目录编号:
59460
目录名称:
STARLINK-31620
国际标识:
2024-068F
轨道中心:
EARTH
卫星名称:
星链-31620
卫星全名:
星链-31620 (STARLINK-31620 )
卫星状态:
在轨 (已飞行795 天)
发射日期:
2024-04-10 UTC
国别 :
美国 (US)
星等 :
--
Orbit Information
数据来源 国际轨道数据
星历时间: 2026-06-14T03:31:38+0800
17小时前
查看轨道信息
半长轴: 6861.184km
偏心率: 0.0001225
轨道倾角: 43.001°
近地点辐角 276.688°
升交点赤经 208.199°
平近点角 83.384°
近地点: 482.206km
远地点: 483.888km
周期: 94.267分钟
每日圈数: 15.275808
Detailed Information
固有亮度:
5
最大亮度:
1.5
卫星平台:
Starlink v2.0 mini
覆盖范围:
全球
运营商:
太空探索技术公司
运营商所在国:
美国
制造商(研发单位):
太空探索技术公司
制造商所在国:
美国
使用方式:
暂无
Satellite Introduction
星链(Starlink)计划是由太空探索技术公司(SpaceX)提出的一个巨型低轨卫星互联网星座项目,计划在2019年至2024年间在太空搭建由约1.2万颗卫星组成的“星链”网络,其中1584颗将部署在地球上空550千米处的近地轨道,并从2020年开始工作。该卫星仍在工作。
2D Orbit Map
3D Orbit Map
Orbit Altitude Analysis Chart
Orbit Inclination Analysis Chart
Orbit Comprehensive Analysis Chart
View Comprehensive Chart